Time,TemperatureF,DewpointF,PressureIn,WindDirection,WindDirectionDegrees,WindSpeedMPH,WindSpeedGustMPH,Humidity,HourlyPrecipIn,Conditions,Clouds,dailyrainin,SoftwareType,DateUTC
2013-07-15 00:01:00,69.8,66.1,29.25,NE,45,3.5,3.5,88,0.00,CLR,,0.00,WeatherDisplay:10.37,2013-07-15 05:01:00,
2013-07-15 00:06:00,69.8,66.1,29.25,NE,45,3.5,3.5,88,0.00,CLR,,0.00,WeatherDisplay:10.37,2013-07-15 05:06:00,
2013-07-15 00:11:00,69.6,66.2,29.25,NE,45,3.5,3.5,89,0.00,CLR,,0.00,WeatherDisplay:10.37,2013-07-15 05:11:00,
2013-07-15 00:16:00,69.4,66.1,29.25,NE,45,2.3,2.3,89,0.00,CLR,,0.00,WeatherDisplay:10.37,2013-07-15 05:16:00,
2013-07-15 00:21:00,69.4,66.1,29.25,NE,45,2.3,2.3,89,0.00,CLR,,0.00,WeatherDisplay:10.37,2013-07-15 05:21:00,
2013-07-15 00:26:00,69.4,66.1,29.25,North,0,2.3,2.3,89,0.00,CLR,,0.00,WeatherDisplay:10.37,2013-07-15 05:26:00,
2013-07-15 00:31:00,69.3,65.9,29.26,NE,45,2.3,2.3,89,0.00,CLR,,0.00,WeatherDisplay:10.37,2013-07-15 05:31:00,
2013-07-15 00:36:00,69.3,66.2,29.25,NE,45,2.3,2.3,90,0.00,CLR,,0.00,WeatherDisplay:10.37,2013-07-15 05:36:00,
2013-07-15 00:41:00,69.1,66.0,29.26,NE,45,3.5,3.5,90,0.00,CLR,,0.00,WeatherDisplay:10.37,2013-07-15 05:41:00,
2013-07-15 00:46:00,69.1,66.3,29.26,NE,45,2.3,2.3,91,0.00,CLR,,0.00,WeatherDisplay:10.37,2013-07-15 05:46:00,
2013-07-15 00:52:00,69.1,66.3,29.26,NE,45,3.5,3.5,91,0.00,CLR,,0.00,WeatherDisplay:10.37,2013-07-15 05:52:00,
2013-07-15 00:57:00,68.9,66.2,29.26,NE,45,2.3,2.3,91,0.00,CLR,,0.00,WeatherDisplay:10.37,2013-07-15 05:57:00,
2013-07-15 01:02:00,68.7,66.0,29.26,NE,45,2.3,2.3,91,0.00,CLR,,0.00,WeatherDisplay:10.37,2013-07-15 06:02:00,
2013-07-15 01:07:00,68.7,66.0,29.26,NE,45,2.3,2.3,91,0.00,CLR,,0.00,WeatherDisplay:10.37,2013-07-15 06:07:00,
2013-07-15 01:12:00,68.4,65.9,29.26,NE,45,2.3,2.3,92,0.00,CLR,,0.00,WeatherDisplay:10.37,2013-07-15 06:12:00,
2013-07-15 01:17:00,68.4,66.3,29.26,NE,45,2.3,2.3,93,0.00,CLR,,0.00,WeatherDisplay:10.37,2013-07-15 06:17:00,
2013-07-15 01:22:00,68.2,66.1,29.25,NE,45,2.3,2.3,93,0.00,CLR,,0.00,WeatherDisplay:10.37,2013-07-15 06:22:00,
2013-07-15 01:27:00,68.2,66.1,29.26,NE,45,2.3,2.3,93,0.00,CLR,,0.00,WeatherDisplay:10.37,2013-07-15 06:27:00,
2013-07-15 01:32:00,68.0,65.9,29.26,NE,45,2.3,2.3,93,0.00,CLR,,0.00,WeatherDisplay:10.37,2013-07-15 06:32:00,
2013-07-15 01:37:00,67.8,65.7,29.26,North,0,2.3,2.3,93,0.00,CLR,,0.00,WeatherDisplay:10.37,2013-07-15 06:37:00,
2013-07-15 01:42:00,67.8,65.7,29.26,NE,45,2.3,2.3,93,0.00,CLR,,0.00,WeatherDisplay:10.37,2013-07-15 06:42:00,
2013-07-15 01:47:00,67.5,65.4,29.26,NE,45,2.3,2.3,93,0.00,CLR,,0.00,WeatherDisplay:10.37,2013-07-15 06:47:00,
2013-07-15 01:52:00,67.5,65.4,29.26,NE,45,2.3,2.3,93,0.00,CLR,,0.00,WeatherDisplay:10.37,2013-07-15 06:52:00,
2013-07-15 01:57:00,67.3,65.2,29.26,NE,45,1.6,1.6,93,0.00,CLR,,0.00,WeatherDisplay:10.37,2013-07-15 06:57:00,
2013-07-15 02:02:00,67.3,65.2,29.26,NE,45,1.1,0.0,93,0.00,CLR,,0.00,WeatherDisplay:10.37,2013-07-15 07:02:00,
2013-07-15 02:07:00,67.3,65.2,29.26,NE,45,1.1,0.0,93,0.00,CLR,,0.00,WeatherDisplay:10.37,2013-07-15 07:07:00,
2013-07-15 02:12:00,67.5,65.7,29.25,East,90,1.1,0.0,94,0.00,CLR,,0.00,WeatherDisplay:10.37,2013-07-15 07:12:00,
2013-07-15 02:17:00,68.0,66.2,29.25,NE,45,1.1,1.1,94,0.00,CLR,,0.00,WeatherDisplay:10.37,2013-07-15 07:17:00,
2013-07-15 02:22:00,68.4,66.6,29.25,East,90,3.5,3.5,94,0.00,CLR,,0.00,WeatherDisplay:10.37,2013-07-15 07:22:00,
2013-07-15 02:27:00,69.1,67.0,29.25,South,180,2.3,2.3,93,0.00,CLR,,0.00,WeatherDisplay:10.37,2013-07-15 07:27:00,
2013-07-15 02:32:00,69.3,66.8,29.25,SE,135,3.5,3.5,92,0.00,CLR,,0.00,WeatherDisplay:10.37,2013-07-15 07:32:00,
2013-07-15 02:37:00,69.6,66.9,29.25,SE,135,3.1,3.1,91,0.00,CLR,,0.00,WeatherDisplay:10.37,2013-07-15 07:37:00,
2013-07-15 02:42:00,69.8,67.1,29.25,ENE,68,3.5,3.5,91,0.00,CLR,,0.00,WeatherDisplay:10.37,2013-07-15 07:42:00,
2013-07-15 02:47:00,70.2,67.4,29.25,East,90,2.3,0.0,91,0.00,CLR,,0.00,WeatherDisplay:10.37,2013-07-15 07:47:00,
2013-07-15 02:52:00,69.8,67.1,29.26,SE,135,2.3,2.3,91,0.00,CLR,,0.00,WeatherDisplay:10.37,2013-07-15 07:52:00,
2013-07-15 02:57:00,69.6,66.6,29.26,East,90,3.5,3.5,90,0.00,CLR,,0.00,WeatherDisplay:10.37,2013-07-15 07:57:00,
2013-07-15 03:02:00,69.4,66.4,29.25,North,0,2.3,2.3,90,0.00,CLR,,0.00,WeatherDisplay:10.37,2013-07-15 08:02:00,
2013-07-15 03:07:00,69.4,66.4,29.26,North,0,2.3,2.3,90,0.00,CLR,,0.00,WeatherDisplay:10.37,2013-07-15 08:07:00,
2013-07-15 03:12:00,68.0,64.3,29.26,NE,45,3.5,3.5,88,0.00,CLR,,0.00,WeatherDisplay:10.37,2013-07-15 08:12:00,
2013-07-15 03:17:00,67.1,64.1,29.26,NE,45,3.5,3.5,90,0.00,CLR,,0.00,WeatherDisplay:10.37,2013-07-15 08:17:00,
2013-07-15 03:22:00,66.9,64.2,29.26,NE,45,2.3,2.3,91,0.00,CLR,,0.00,WeatherDisplay:10.37,2013-07-15 08:22:00,
2013-07-15 03:27:00,66.7,64.3,29.26,NE,45,2.3,2.3,92,0.00,CLR,,0.00,WeatherDisplay:10.37,2013-07-15 08:27:00,
2013-07-15 03:32:00,66.6,64.2,29.26,NE,45,2.3,2.3,92,0.00,CLR,,0.00,WeatherDisplay:10.37,2013-07-15 08:32:00,
2013-07-15 03:37:00,66.6,64.5,29.26,NE,45,1.1,1.1,93,0.00,CLR,,0.00,WeatherDisplay:10.37,2013-07-15 08:37:00,
2013-07-15 03:42:00,66.4,64.3,29.26,NE,45,2.3,2.3,93,0.00,CLR,,0.00,WeatherDisplay:10.37,2013-07-15 08:42:00,
2013-07-15 03:47:00,66.4,64.3,29.26,North,0,1.1,1.1,93,0.00,CLR,,0.00,WeatherDisplay:10.37,2013-07-15 08:47:00,
2013-07-15 03:52:00,66.2,64.1,29.26,NE,45,2.3,2.3,93,0.00,CLR,,0.00,WeatherDisplay:10.37,2013-07-15 08:52:00,
2013-07-15 03:57:00,66.0,63.9,29.26,North,0,2.3,2.3,93,0.00,CLR,,0.00,WeatherDisplay:10.37,2013-07-15 08:57:00,
2013-07-15 04:02:00,65.8,63.8,29.26,North,0,2.3,2.3,93,0.00,CLR,,0.00,WeatherDisplay:10.37,2013-07-15 09:02:00,
2013-07-15 04:07:00,65.7,63.6,29.26,NE,45,2.3,2.3,93,0.00,CLR,,0.00,WeatherDisplay:10.37,2013-07-15 09:07:00,
2013-07-15 04:12:00,65.7,63.9,29.26,NE,45,2.3,2.3,94,0.00,CLR,,0.00,WeatherDisplay:10.37,2013-07-15 09:12:00,
2013-07-15 04:17:00,65.3,63.5,29.27,NE,45,2.3,2.3,94,0.00,CLR,,0.00,WeatherDisplay:10.37,2013-07-15 09:17:00,
2013-07-15 04:22:00,65.3,63.5,29.27,NE,45,2.3,2.3,94,0.00,CLR,,0.00,WeatherDisplay:10.37,2013-07-15 09:22:00,
2013-07-15 04:27:00,67.6,65.9,29.27,NE,45,3.5,3.5,94,0.00,CLR,,0.00,WeatherDisplay:10.37,2013-07-15 09:27:00,
2013-07-15 04:32:00,65.5,63.7,29.26,NE,45,2.3,2.3,94,0.00,CLR,,0.00,WeatherDisplay:10.37,2013-07-15 09:32:00,
2013-07-15 04:37:00,65.3,63.5,29.26,NE,45,3.5,3.5,94,0.00,CLR,,0.00,WeatherDisplay:10.37,2013-07-15 09:37:00,
2013-07-15 04:42:00,65.3,63.5,29.26,NE,45,2.3,2.3,94,0.00,CLR,,0.00,WeatherDisplay:10.37,2013-07-15 09:42:00,
2013-07-15 04:47:00,65.3,63.5,29.26,NE,45,3.1,3.1,94,0.00,CLR,,0.00,WeatherDisplay:10.37,2013-07-15 09:47:00,
2013-07-15 04:52:00,65.3,63.5,29.26,NE,45,3.5,3.5,94,0.00,CLR,,0.00,WeatherDisplay:10.37,2013-07-15 09:52:00,
2013-07-15 04:57:00,65.3,63.5,29.26,NE,45,3.5,3.5,94,0.00,CLR,,0.00,WeatherDisplay:10.37,2013-07-15 09:57:00,
2013-07-15 05:02:00,65.3,63.5,29.26,NE,45,2.3,2.3,94,0.00,CLR,,0.00,WeatherDisplay:10.37,2013-07-15 10:02:00,
2013-07-15 05:07:00,65.3,63.5,29.27,NE,45,2.3,2.3,94,0.00,CLR,,0.00,WeatherDisplay:10.37,2013-07-15 10:07:00,
2013-07-15 05:12:00,67.3,65.8,29.26,North,2,3.5,3.5,95,0.00,CLR,,0.00,WeatherDisplay:10.37,2013-07-15 10:12:00,
2013-07-15 05:17:00,67.3,65.8,29.27,ENE,68,3.5,3.5,95,0.00,CLR,,0.00,WeatherDisplay:10.37,2013-07-15 10:17:00,
2013-07-15 05:22:00,67.5,65.7,29.27,ENE,68,3.5,3.5,94,0.00,CLR,,0.00,WeatherDisplay:10.37,2013-07-15 10:22:00,
2013-07-15 05:27:00,67.5,65.7,29.27,ENE,68,2.3,2.3,94,0.00,CLR,,0.00,WeatherDisplay:10.37,2013-07-15 10:27:00,
2013-07-15 05:32:00,67.5,65.7,29.27,ENE,68,3.5,3.5,94,0.00,CLR,,0.00,WeatherDisplay:10.37,2013-07-15 10:32:00,
2013-07-15 05:37:00,67.5,65.7,29.26,North,3,3.5,3.5,94,0.00,CLR,,0.00,WeatherDisplay:10.37,2013-07-15 10:37:00,
2013-07-15 05:42:00,67.3,65.5,29.27,North,0,3.5,3.5,94,0.00,CLR,,0.00,WeatherDisplay:10.37,2013-07-15 10:42:00,
2013-07-15 05:47:00,65.5,63.4,29.27,NE,45,2.3,2.3,93,0.00,CLR,,0.00,WeatherDisplay:10.37,2013-07-15 10:47:00,
2013-07-15 05:52:00,65.5,63.4,29.27,NE,45,2.3,2.3,93,0.00,CLR,,0.00,WeatherDisplay:10.37,2013-07-15 10:52:00,
2013-07-15 05:57:00,65.5,63.4,29.27,NE,45,2.3,2.3,93,0.00,CLR,,0.00,WeatherDisplay:10.37,2013-07-15 10:57:00,
2013-07-15 06:02:00,65.7,63.6,29.27,NE,45,2.3,2.3,93,0.00,CLR,,0.00,WeatherDisplay:10.37,2013-07-15 11:02:00,
2013-07-15 06:07:00,67.6,65.5,29.27,North,0,2.3,2.3,93,0.00,CLR,,0.00,WeatherDisplay:10.37,2013-07-15 11:07:00,
2013-07-15 06:12:00,65.7,63.3,29.27,NE,45,1.1,0.0,92,0.00,CLR,,0.00,WeatherDisplay:10.37,2013-07-15 11:12:00,
2013-07-15 06:17:00,66.0,63.6,29.28,NE,45,1.1,0.0,92,0.00,CLR,,0.00,WeatherDisplay:10.37,2013-07-15 11:17:00,
2013-07-15 06:22:00,66.0,63.6,29.28,North,2,1.1,0.0,92,0.00,CLR,,0.00,WeatherDisplay:10.37,2013-07-15 11:22:00,
2013-07-15 06:27:00,66.0,63.6,29.28,North,0,1.1,0.0,92,0.00,CLR,,0.00,WeatherDisplay:10.37,2013-07-15 11:27:00,
2013-07-15 06:32:00,66.0,63.6,29.28,North,0,1.6,0.0,92,0.00,CLR,,0.00,WeatherDisplay:10.37,2013-07-15 11:32:00,
2013-07-15 06:37:00,66.0,63.6,29.28,North,0,1.1,0.0,92,0.00,CLR,,0.00,WeatherDisplay:10.37,2013-07-15 11:37:00,
2013-07-15 06:42:00,66.0,63.6,29.28,North,0,1.1,0.0,92,0.00,CLR,,0.00,WeatherDisplay:10.37,2013-07-15 11:42:00,
2013-07-15 06:47:00,66.0,63.6,29.28,North,0,1.1,0.0,92,0.00,CLR,,0.00,WeatherDisplay:10.37,2013-07-15 11:47:00,
2013-07-15 06:52:00,66.0,63.6,29.28,North,0,1.1,0.0,92,0.00,CLR,,0.00,WeatherDisplay:10.37,2013-07-15 11:52:00,
2013-07-15 06:57:00,66.0,63.6,29.28,North,0,1.6,0.0,92,0.00,CLR,,0.00,WeatherDisplay:10.37,2013-07-15 11:57:00,
2013-07-15 07:02:00,66.0,63.6,29.28,North,0,1.1,0.0,92,0.00,CLR,,0.00,WeatherDisplay:10.37,2013-07-15 12:02:00,
2013-07-15 07:07:00,66.0,63.6,29.28,North,0,1.1,0.0,92,0.00,CLR,,0.00,WeatherDisplay:10.37,2013-07-15 12:07:00,
2013-07-15 07:12:00,66.0,63.6,29.28,North,0,1.1,0.0,92,0.00,CLR,,0.00,WeatherDisplay:10.37,2013-07-15 12:12:00,
2013-07-15 07:17:00,66.0,63.6,29.28,North,0,1.1,0.0,92,0.00,CLR,,0.00,WeatherDisplay:10.37,2013-07-15 12:17:00,
2013-07-15 07:22:00,66.0,63.6,29.29,North,0,1.1,0.0,92,0.00,CLR,,0.00,WeatherDisplay:10.37,2013-07-15 12:22:00,
2013-07-15 07:27:00,66.0,63.6,29.29,North,0,1.1,0.0,92,0.00,CLR,,0.00,WeatherDisplay:10.37,2013-07-15 12:27:00,
2013-07-15 07:32:00,66.0,63.6,29.29,North,0,1.6,0.0,92,0.00,CLR,,0.00,WeatherDisplay:10.37,2013-07-15 12:32:00,
2013-07-15 07:37:00,66.0,63.6,29.29,North,0,1.1,0.0,92,0.00,CLR,,0.00,WeatherDisplay:10.37,2013-07-15 12:37:00,
2013-07-15 07:42:00,66.0,63.6,29.29,North,0,1.1,0.0,92,0.00,CLR,,0.00,WeatherDisplay:10.37,2013-07-15 12:42:00,
2013-07-15 07:47:00,66.0,63.6,29.29,North,0,1.1,0.0,92,0.00,CLR,,0.00,WeatherDisplay:10.37,2013-07-15 12:47:00,
2013-07-15 07:52:00,66.0,63.6,29.29,North,0,1.1,0.0,92,0.00,CLR,,0.00,WeatherDisplay:10.37,2013-07-15 12:52:00,
2013-07-15 07:57:00,66.0,63.6,29.29,North,0,1.6,0.0,92,0.00,CLR,,0.00,WeatherDisplay:10.37,2013-07-15 12:57:00,
2013-07-15 08:02:00,66.0,63.6,29.29,North,0,1.1,0.0,92,0.00,CLR,,0.00,WeatherDisplay:10.37,2013-07-15 13:02:00,
2013-07-15 08:07:00,66.0,63.6,29.29,North,0,1.1,0.0,92,0.00,CLR,,0.00,WeatherDisplay:10.37,2013-07-15 13:07:00,
2013-07-15 08:12:00,66.0,63.6,29.29,North,0,1.1,0.0,92,0.00,CLR,,0.00,WeatherDisplay:10.37,2013-07-15 13:12:00,
2013-07-15 08:17:00,66.0,63.6,29.30,North,0,1.1,0.0,92,0.00,CLR,,0.00,WeatherDisplay:10.37,2013-07-15 13:17:00,
2013-07-15 08:22:00,66.0,63.6,29.29,North,0,1.1,0.0,92,0.00,CLR,,0.00,WeatherDisplay:10.37,2013-07-15 13:22:00,
2013-07-15 08:27:00,66.0,63.6,29.30,North,0,1.1,0.0,92,0.00,CLR,,0.00,WeatherDisplay:10.37,2013-07-15 13:27:00,
2013-07-15 08:32:00,66.0,63.6,29.30,North,0,1.1,0.0,92,0.00,CLR,,0.00,WeatherDisplay:10.37,2013-07-15 13:32:00,
2013-07-15 08:37:00,66.0,63.6,29.30,North,0,1.1,0.0,92,0.00,CLR,,0.00,WeatherDisplay:10.37,2013-07-15 13:37:00,
2013-07-15 08:42:00,66.0,63.6,29.30,North,0,1.1,0.0,92,0.00,CLR,,0.00,WeatherDisplay:10.37,2013-07-15 13:42:00,
2013-07-15 08:47:00,66.0,63.6,29.29,North,0,1.1,0.0,92,0.00,CLR,,0.00,WeatherDisplay:10.37,2013-07-15 13:47:00,
2013-07-15 08:52:00,66.0,63.6,29.29,North,0,1.1,0.0,92,0.00,CLR,,0.00,WeatherDisplay:10.37,2013-07-15 13:52:00,
2013-07-15 08:57:00,66.0,63.6,29.30,North,0,1.1,0.0,92,0.00,CLR,,0.00,WeatherDisplay:10.37,2013-07-15 13:57:00,
2013-07-15 09:02:00,66.0,63.6,29.30,North,0,1.6,0.0,92,0.00,CLR,,0.00,WeatherDisplay:10.37,2013-07-15 14:02:00,
2013-07-15 09:07:00,66.0,63.6,29.30,North,0,1.1,0.0,92,0.00,CLR,,0.00,WeatherDisplay:10.37,2013-07-15 14:07:00,
2013-07-15 09:12:00,66.0,63.6,29.30,North,0,1.1,0.0,92,0.00,CLR,,0.00,WeatherDisplay:10.37,2013-07-15 14:12:00,
2013-07-15 09:17:00,66.0,63.6,29.30,North,0,1.1,0.0,92,0.00,CLR,,0.00,WeatherDisplay:10.37,2013-07-15 14:17:00,
2013-07-15 09:22:00,66.0,63.6,29.30,North,0,1.1,0.0,92,0.00,CLR,,0.00,WeatherDisplay:10.37,2013-07-15 14:22:00,
2013-07-15 09:27:00,66.0,63.6,29.30,North,0,1.1,0.0,92,0.00,CLR,,0.00,WeatherDisplay:10.37,2013-07-15 14:27:00,
2013-07-15 09:32:00,66.0,63.6,29.30,North,0,1.1,0.0,92,0.00,CLR,,0.00,WeatherDisplay:10.37,2013-07-15 14:32:00,
2013-07-15 09:37:00,66.0,63.6,29.29,North,0,1.1,0.0,92,0.00,CLR,,0.00,WeatherDisplay:10.37,2013-07-15 14:37:00,
2013-07-15 09:42:00,66.0,63.6,29.30,North,0,1.1,0.0,92,0.00,CLR,,0.00,WeatherDisplay:10.37,2013-07-15 14:42:00,
2013-07-15 09:47:00,82.4,70.8,29.30,South,180,3.5,3.5,68,0.00,CLR,,0.00,WeatherDisplay:10.37,2013-07-15 14:47:00,
2013-07-15 09:52:00,82.9,70.9,29.29,SE,135,3.5,3.5,67,0.00,CLR,,0.00,WeatherDisplay:10.37,2013-07-15 14:52:00,
2013-07-15 09:57:00,83.8,70.8,29.29,South,180,3.5,3.5,65,0.00,CLR,,0.00,WeatherDisplay:10.37,2013-07-15 14:57:00,
2013-07-15 10:02:00,84.2,70.7,29.29,SE,135,3.5,3.5,64,0.00,CLR,,0.00,WeatherDisplay:10.37,2013-07-15 15:02:00,
2013-07-15 10:07:00,85.1,71.1,29.29,SE,135,3.5,3.5,63,0.00,CLR,,0.00,WeatherDisplay:10.37,2013-07-15 15:07:00,
2013-07-15 10:12:00,85.5,71.4,29.29,South,180,3.5,3.5,63,0.00,CLR,,0.00,WeatherDisplay:10.37,2013-07-15 15:12:00,
2013-07-15 10:17:00,85.8,70.8,29.29,South,180,4.5,4.5,61,0.00,CLR,,0.00,WeatherDisplay:10.37,2013-07-15 15:17:00,
2013-07-15 10:22:00,85.6,70.6,29.30,South,180,4.6,4.6,61,0.00,CLR,,0.00,WeatherDisplay:10.37,2013-07-15 15:22:00,
2013-07-15 10:27:00,85.6,69.7,29.29,South,180,3.5,3.5,59,0.00,CLR,,0.00,WeatherDisplay:10.37,2013-07-15 15:27:00,
2013-07-15 10:33:00,85.5,69.5,29.29,South,180,5.8,5.8,59,0.00,CLR,,0.00,WeatherDisplay:10.37,2013-07-15 15:33:00,
2013-07-15 10:38:00,85.1,67.6,29.29,SSE,158,5.8,5.8,56,0.00,CLR,,0.00,WeatherDisplay:10.37,2013-07-15 15:38:00,
2013-07-15 10:44:00,85.3,68.3,29.29,SE,135,4.6,4.6,57,0.00,CLR,,0.00,WeatherDisplay:10.37,2013-07-15 15:44:00,
2013-07-15 10:49:00,86.4,67.8,29.29,South,180,4.6,4.6,54,0.00,CLR,,0.00,WeatherDisplay:10.37,2013-07-15 15:49:00,
2013-07-15 10:54:00,86.9,67.7,29.29,South,180,5.8,5.8,53,0.00,CLR,,0.00,WeatherDisplay:10.37,2013-07-15 15:54:00,
2013-07-15 10:59:00,86.2,69.2,29.29,South,180,8.1,8.1,57,0.00,CLR,,0.00,WeatherDisplay:10.37,2013-07-15 15:59:00,
2013-07-15 11:04:00,84.7,67.3,29.29,South,180,11.5,11.5,56,0.00,CLR,,0.00,WeatherDisplay:10.37,2013-07-15 16:04:00,
2013-07-15 11:09:00,85.1,67.1,29.28,South,180,9.8,9.8,55,0.00,CLR,,0.00,WeatherDisplay:10.37,2013-07-15 16:09:00,
2013-07-15 11:14:00,85.5,65.8,29.29,South,180,9.2,9.2,52,0.00,CLR,,0.00,WeatherDisplay:10.37,2013-07-15 16:14:00,
2013-07-15 11:20:00,85.3,65.1,29.29,SW,225,13.8,13.8,51,0.00,CLR,,0.00,WeatherDisplay:10.37,2013-07-15 16:20:00,
2013-07-15 11:25:00,85.5,66.4,29.29,SW,225,12.7,12.7,53,0.00,CLR,,0.00,WeatherDisplay:10.37,2013-07-15 16:25:00,
2013-07-15 11:30:00,85.6,66.5,29.28,SW,225,10.4,10.4,53,0.00,CLR,,0.00,WeatherDisplay:10.37,2013-07-15 16:30:00,
2013-07-15 11:35:00,86.0,65.2,29.29,SW,225,8.1,8.1,50,0.00,CLR,,0.00,WeatherDisplay:10.37,2013-07-15 16:35:00,
2013-07-15 11:41:00,86.9,66.6,29.29,South,177,2.0,7.0,51,0.00,CLR,,0.00,WeatherDisplay:10.37,2013-07-15 16:41:00,
2013-07-15 11:46:00,86.4,67.2,29.29,South,180,10.4,10.4,53,0.00,CLR,,0.00,WeatherDisplay:10.37,2013-07-15 16:46:00,
2013-07-15 11:51:00,86.4,66.1,29.28,SW,225,9.2,9.2,51,0.00,CLR,,0.00,WeatherDisplay:10.37,2013-07-15 16:51:00,
2013-07-15 11:56:00,86.2,64.2,29.28,SW,225,12.7,12.7,48,0.00,CLR,,0.00,WeatherDisplay:10.37,2013-07-15 16:56:00,
2013-07-15 12:01:00,86.0,66.3,29.29,South,180,13.8,13.8,52,0.00,CLR,,0.00,WeatherDisplay:10.37,2013-07-15 17:01:00,
2013-07-15 12:07:00,86.2,65.9,29.28,SW,225,11.5,11.5,51,0.00,CLR,,0.00,WeatherDisplay:10.37,2013-07-15 17:07:00,
2013-07-15 12:12:00,85.6,66.5,29.28,South,180,12.7,12.7,53,0.00,CLR,,0.00,WeatherDisplay:10.37,2013-07-15 17:12:00,
2013-07-15 12:17:00,86.5,66.3,29.28,South,180,10.4,10.4,51,0.00,CLR,,0.00,WeatherDisplay:10.37,2013-07-15 17:17:00,
2013-07-15 12:23:00,86.2,65.9,29.28,South,180,11.4,11.4,51,0.00,CLR,,0.00,WeatherDisplay:10.37,2013-07-15 17:23:00,
2013-07-15 12:28:00,86.9,64.8,29.28,SW,225,11.5,11.5,48,0.00,CLR,,0.00,WeatherDisplay:10.37,2013-07-15 17:28:00,
2013-07-15 12:33:00,88.0,64.6,29.28,SW,225,8.1,8.1,46,0.00,CLR,,0.00,WeatherDisplay:10.37,2013-07-15 17:33:00,
2013-07-15 12:38:00,87.3,65.8,29.28,South,180,15.0,15.0,49,0.00,CLR,,0.00,WeatherDisplay:10.37,2013-07-15 17:38:00,
2013-07-15 12:44:00,86.9,63.6,29.28,South,180,10.4,10.4,46,0.00,CLR,,0.00,WeatherDisplay:10.37,2013-07-15 17:44:00,
2013-07-15 12:50:00,88.0,64.0,29.28,SW,225,11.5,11.5,45,0.00,CLR,,0.00,WeatherDisplay:10.37,2013-07-15 17:50:00,
2013-07-15 12:55:00,88.0,64.0,29.28,South,180,12.7,12.7,45,0.00,CLR,,0.00,WeatherDisplay:10.37,2013-07-15 17:55:00,
2013-07-15 13:00:00,88.2,63.5,29.27,SW,225,8.1,8.1,44,0.00,CLR,,0.00,WeatherDisplay:10.37,2013-07-15 18:00:00,
2013-07-15 13:05:00,87.2,65.8,29.28,SW,226,5.0,10.0,49,0.00,CLR,,0.00,WeatherDisplay:10.37,2013-07-15 18:05:00,
2013-07-15 13:11:00,87.8,65.6,29.28,SW,221,5.0,11.0,48,0.00,CLR,,0.00,WeatherDisplay:10.37,2013-07-15 18:11:00,
2013-07-15 13:16:00,88.5,65.7,29.27,SW,225,5.4,5.4,47,0.00,CLR,,0.00,WeatherDisplay:10.37,2013-07-15 18:16:00,
2013-07-15 13:21:00,87.6,64.3,29.28,South,180,10.4,10.4,46,0.00,CLR,,0.00,WeatherDisplay:10.37,2013-07-15 18:21:00,
2013-07-15 13:26:00,87.6,65.5,29.28,South,180,9.2,9.2,48,0.00,CLR,,0.00,WeatherDisplay:10.37,2013-07-15 18:26:00,
2013-07-15 13:32:00,87.8,65.1,29.28,WNW,292,11.5,11.5,47,0.00,CLR,,0.00,WeatherDisplay:10.37,2013-07-15 18:32:00,
2013-07-15 13:37:00,88.2,64.8,29.27,West,270,8.1,8.1,46,0.00,CLR,,0.00,WeatherDisplay:10.37,2013-07-15 18:37:00,
2013-07-15 13:42:00,87.8,64.4,29.27,South,180,13.8,13.8,46,0.00,CLR,,0.00,WeatherDisplay:10.37,2013-07-15 18:42:00,
2013-07-15 13:47:00,88.3,64.9,29.27,SW,225,8.1,8.1,46,0.00,CLR,,0.00,WeatherDisplay:10.37,2013-07-15 18:47:00,
2013-07-15 13:52:00,88.0,63.3,29.26,SW,225,11.5,11.5,44,0.00,CLR,,0.00,WeatherDisplay:10.37,2013-07-15 18:52:00,
2013-07-15 13:57:00,87.8,65.1,29.27,SW,225,12.7,12.7,47,0.00,CLR,,0.00,WeatherDisplay:10.37,2013-07-15 18:57:00,
2013-07-15 14:02:00,87.6,65.5,29.27,SW,225,13.8,13.8,48,0.00,CLR,,0.00,WeatherDisplay:10.37,2013-07-15 19:02:00,
2013-07-15 14:08:00,88.2,63.5,29.27,South,180,15.0,15.0,44,0.00,CLR,,0.00,WeatherDisplay:10.37,2013-07-15 19:08:00,
2013-07-15 14:13:00,88.2,67.2,29.26,South,180,15.0,15.0,50,0.00,CLR,,0.00,WeatherDisplay:10.37,2013-07-15 19:13:00,
2013-07-15 14:18:00,88.0,67.0,29.26,SW,225,10.4,10.4,50,0.00,CLR,,0.00,WeatherDisplay:10.37,2013-07-15 19:18:00,
2013-07-15 14:23:00,89.4,65.9,29.26,SW,225,9.2,9.2,46,0.00,CLR,,0.00,WeatherDisplay:10.37,2013-07-15 19:23:00,
2013-07-15 14:28:00,88.9,64.8,29.26,SW,225,12.7,12.7,45,0.00,CLR,,0.00,WeatherDisplay:10.37,2013-07-15 19:28:00,
2013-07-15 14:33:00,88.3,64.9,29.26,South,180,13.8,13.8,46,0.00,CLR,,0.00,WeatherDisplay:10.37,2013-07-15 19:33:00,
2013-07-15 14:38:00,89.4,65.3,29.26,South,180,8.3,8.3,45,0.00,CLR,,0.00,WeatherDisplay:10.37,2013-07-15 19:38:00,
2013-07-15 14:43:00,89.4,67.1,29.25,South,180,9.2,9.2,48,0.00,CLR,,0.00,WeatherDisplay:10.37,2013-07-15 19:43:00,
2013-07-15 14:49:00,88.3,66.8,29.25,South,180,9.2,9.2,49,0.00,CLR,,0.00,WeatherDisplay:10.37,2013-07-15 19:49:00,
2013-07-15 14:54:00,88.3,67.9,29.25,South,180,10.4,10.4,51,0.00,CLR,,0.00,WeatherDisplay:10.37,2013-07-15 19:54:00,
2013-07-15 14:59:00,89.4,65.9,29.25,SW,225,10.4,10.4,46,0.00,CLR,,0.00,WeatherDisplay:10.37,2013-07-15 19:59:00,
2013-07-15 15:04:00,89.4,67.1,29.24,South,180,13.8,13.8,48,0.00,CLR,,0.00,WeatherDisplay:10.37,2013-07-15 20:04:00,
2013-07-15 15:10:00,88.7,65.3,29.25,SW,225,19.6,19.6,46,0.00,CLR,,0.00,WeatherDisplay:10.37,2013-07-15 20:10:00,
2013-07-15 15:16:00,88.7,65.3,29.25,NW,315,15.0,15.0,46,0.00,CLR,,0.00,WeatherDisplay:10.37,2013-07-15 20:16:00,
2013-07-15 15:22:00,88.9,66.0,29.24,SW,225,10.4,10.4,47,0.00,CLR,,0.00,WeatherDisplay:10.37,2013-07-15 20:22:00,
2013-07-15 15:27:00,88.2,67.8,29.24,South,180,12.7,12.7,51,0.00,CLR,,0.00,WeatherDisplay:10.37,2013-07-15 20:27:00,
2013-07-15 15:32:00,89.1,66.2,29.24,South,180,12.7,12.7,47,0.00,CLR,,0.00,WeatherDisplay:10.37,2013-07-15 20:32:00,
2013-07-15 15:37:00,88.7,67.1,29.24,NNE,22,10.4,10.4,49,0.00,CLR,,0.00,WeatherDisplay:10.37,2013-07-15 20:37:00,
2013-07-15 15:42:00,88.3,67.3,29.24,South,180,11.5,11.5,50,0.00,CLR,,0.00,WeatherDisplay:10.37,2013-07-15 20:42:00,
2013-07-15 15:47:00,88.5,66.9,29.24,SW,225,11.5,11.5,49,0.00,CLR,,0.00,WeatherDisplay:10.37,2013-07-15 20:47:00,
2013-07-15 15:52:00,88.5,66.9,29.24,SW,225,12.7,12.7,49,0.00,CLR,,0.00,WeatherDisplay:10.37,2013-07-15 20:52:00,
2013-07-15 15:57:00,88.3,66.2,29.24,South,180,11.5,11.5,48,0.00,CLR,,0.00,WeatherDisplay:10.37,2013-07-15 20:57:00,
2013-07-15 16:02:00,88.0,66.4,29.24,South,180,10.4,10.4,49,0.00,CLR,,0.00,WeatherDisplay:10.37,2013-07-15 21:02:00,
2013-07-15 16:08:00,88.0,68.7,29.24,South,180,8.1,8.1,53,0.00,CLR,,0.00,WeatherDisplay:10.37,2013-07-15 21:08:00,
2013-07-15 16:13:00,88.3,66.2,29.24,SW,225,17.3,17.3,48,0.00,CLR,,0.00,WeatherDisplay:10.37,2013-07-15 21:13:00,
2013-07-15 16:18:00,87.8,67.4,29.24,South,180,11.5,11.5,51,0.00,CLR,,0.00,WeatherDisplay:10.37,2013-07-15 21:18:00,
2013-07-15 16:23:00,87.6,66.7,29.23,SW,225,10.4,10.4,50,0.00,CLR,,0.00,WeatherDisplay:10.37,2013-07-15 21:23:00,
2013-07-15 16:29:00,87.4,66.5,29.23,South,180,10.4,10.4,50,0.00,CLR,,0.00,WeatherDisplay:10.37,2013-07-15 21:29:00,
2013-07-15 16:34:00,87.4,67.1,29.23,South,180,12.7,12.7,51,0.00,CLR,,0.00,WeatherDisplay:10.37,2013-07-15 21:34:00,
2013-07-15 16:39:00,87.8,66.3,29.23,SW,225,12.7,12.7,49,0.00,CLR,,0.00,WeatherDisplay:10.37,2013-07-15 21:39:00,
2013-07-15 16:44:00,88.9,66.7,29.23,SW,225,9.2,9.2,48,0.00,CLR,,0.00,WeatherDisplay:10.37,2013-07-15 21:44:00,
2013-07-15 16:49:00,89.8,68.7,29.23,South,180,10.4,10.4,50,0.00,CLR,,0.00,WeatherDisplay:10.37,2013-07-15 21:49:00,
2013-07-15 16:54:00,88.2,68.3,29.23,South,180,15.0,15.0,52,0.00,CLR,,0.00,WeatherDisplay:10.37,2013-07-15 21:54:00,
2013-07-15 16:59:00,87.4,68.2,29.23,South,180,12.7,12.7,53,0.00,CLR,,0.00,WeatherDisplay:10.37,2013-07-15 21:59:00,
2013-07-15 17:04:00,88.0,69.8,29.22,South,180,12.7,12.7,55,0.00,CLR,,0.00,WeatherDisplay:10.37,2013-07-15 22:04:00,
2013-07-15 17:10:00,87.8,68.5,29.22,South,180,12.7,12.7,53,0.00,CLR,,0.00,WeatherDisplay:10.37,2013-07-15 22:10:00,
2013-07-15 17:15:00,88.0,69.3,29.22,South,180,12.7,12.7,54,0.00,CLR,,0.00,WeatherDisplay:10.37,2013-07-15 22:15:00,
2013-07-15 17:20:00,88.2,70.0,29.22,SW,225,10.4,10.4,55,0.00,CLR,,0.00,WeatherDisplay:10.37,2013-07-15 22:20:00,
2013-07-15 17:25:00,87.7,70.1,29.22,South,188,8.0,13.0,56,0.00,CLR,,0.00,WeatherDisplay:10.37,2013-07-15 22:25:00,
2013-07-15 17:30:00,87.6,68.4,29.22,West,270,11.5,11.5,53,0.00,CLR,,0.00,WeatherDisplay:10.37,2013-07-15 22:30:00,
2013-07-15 17:35:00,88.0,68.7,29.22,SW,223,3.0,12.0,53,0.00,CLR,,0.00,WeatherDisplay:10.37,2013-07-15 22:35:00,
2013-07-15 17:41:00,88.2,68.4,29.22,SW,217,6.0,11.0,52,0.00,CLR,,0.00,WeatherDisplay:10.37,2013-07-15 22:41:00,
2013-07-15 17:46:00,88.9,67.8,29.22,South,180,10.4,10.4,50,0.00,CLR,,0.00,WeatherDisplay:10.37,2013-07-15 22:46:00,
2013-07-15 17:52:00,88.5,68.1,29.22,South,180,10.4,10.4,51,0.00,CLR,,0.00,WeatherDisplay:10.37,2013-07-15 22:52:00,
2013-07-15 17:58:00,88.2,68.9,29.22,South,180,8.1,8.1,53,0.00,CLR,,0.00,WeatherDisplay:10.37,2013-07-15 22:58:00,
2013-07-15 18:03:00,87.8,69.1,29.22,South,180,8.1,8.1,54,0.00,CLR,,0.00,WeatherDisplay:10.37,2013-07-15 23:03:00,
2013-07-15 18:08:00,87.8,68.0,29.22,South,180,8.1,8.1,52,0.00,CLR,,0.00,WeatherDisplay:10.37,2013-07-15 23:08:00,
2013-07-15 18:13:00,88.0,69.3,29.21,South,180,6.9,6.9,54,0.00,CLR,,0.00,WeatherDisplay:10.37,2013-07-15 23:13:00,
2013-07-15 18:18:00,88.5,69.2,29.22,SW,225,8.1,8.1,53,0.00,CLR,,0.00,WeatherDisplay:10.37,2013-07-15 23:18:00,
2013-07-15 18:23:00,88.2,70.0,29.21,SW,225,10.4,10.4,55,0.00,CLR,,0.00,WeatherDisplay:10.37,2013-07-15 23:23:00,
2013-07-15 18:29:00,88.7,69.4,29.22,SW,225,10.4,10.4,53,0.00,CLR,,0.00,WeatherDisplay:10.37,2013-07-15 23:29:00,
2013-07-15 18:34:00,88.0,68.1,29.22,SW,225,8.1,8.1,52,0.00,CLR,,0.00,WeatherDisplay:10.37,2013-07-15 23:34:00,
2013-07-15 18:39:00,88.0,69.3,29.21,South,180,6.9,6.9,54,0.00,CLR,,0.00,WeatherDisplay:10.37,2013-07-15 23:39:00,
2013-07-15 18:45:00,87.8,69.6,29.21,South,180,6.9,6.9,55,0.00,CLR,,0.00,WeatherDisplay:10.37,2013-07-15 23:45:00,
2013-07-15 18:50:00,87.8,69.6,29.21,SW,225,5.8,5.8,55,0.00,CLR,,0.00,WeatherDisplay:10.37,2013-07-15 23:50:00,
2013-07-15 18:56:00,88.7,69.4,29.21,South,180,9.2,9.2,53,0.00,CLR,,0.00,WeatherDisplay:10.37,2013-07-15 23:56:00,
2013-07-15 19:01:00,88.7,69.4,29.21,South,180,6.9,6.9,53,0.00,CLR,,0.00,WeatherDisplay:10.37,2013-07-16 00:01:00,
2013-07-15 19:06:00,89.6,69.6,29.21,SW,225,6.9,6.9,52,0.00,CLR,,0.00,WeatherDisplay:10.37,2013-07-16 00:06:00,
2013-07-15 19:11:00,89.2,69.9,29.21,South,180,8.1,8.1,53,0.00,CLR,,0.00,WeatherDisplay:10.37,2013-07-16 00:11:00,
2013-07-15 19:16:00,88.9,69.5,29.21,South,180,9.2,9.2,53,0.00,CLR,,0.00,WeatherDisplay:10.37,2013-07-16 00:16:00,
2013-07-15 19:21:00,88.7,69.4,29.21,SW,225,9.2,9.2,53,0.00,CLR,,0.00,WeatherDisplay:10.37,2013-07-16 00:21:00,
2013-07-15 19:27:00,88.5,69.2,29.21,SW,225,8.1,8.1,53,0.00,CLR,,0.00,WeatherDisplay:10.37,2013-07-16 00:27:00,
2013-07-15 19:32:00,87.6,69.5,29.22,SW,225,8.1,8.1,55,0.00,CLR,,0.00,WeatherDisplay:10.37,2013-07-16 00:32:00,
2013-07-15 19:37:00,87.4,69.8,29.22,South,180,5.8,5.8,56,0.00,CLR,,0.00,WeatherDisplay:10.37,2013-07-16 00:37:00,
2013-07-15 19:42:00,87.4,70.3,29.21,SW,225,5.8,5.8,57,0.00,CLR,,0.00,WeatherDisplay:10.37,2013-07-16 00:42:00,
2013-07-15 19:47:00,86.9,69.3,29.21,SW,225,5.8,5.8,56,0.00,CLR,,0.00,WeatherDisplay:10.37,2013-07-16 00:47:00,
2013-07-15 19:52:00,86.9,69.3,29.21,SW,225,5.8,5.8,56,0.00,CLR,,0.00,WeatherDisplay:10.37,2013-07-16 00:52:00,
2013-07-15 19:57:00,88.0,69.8,29.22,South,180,3.5,3.5,55,0.00,CLR,,0.00,WeatherDisplay:10.37,2013-07-16 00:57:00,
2013-07-15 20:03:00,87.3,69.1,29.22,South,180,5.8,5.8,55,0.00,CLR,,0.00,WeatherDisplay:10.37,2013-07-16 01:03:00,
2013-07-15 20:08:00,87.1,71.0,29.22,SW,225,3.5,3.5,59,0.00,CLR,,0.00,WeatherDisplay:10.37,2013-07-16 01:08:00,
2013-07-15 20:13:00,87.3,70.2,29.22,SW,225,3.5,3.5,57,0.00,CLR,,0.00,WeatherDisplay:10.37,2013-07-16 01:13:00,
2013-07-15 20:18:00,87.3,70.2,29.22,South,180,3.5,3.5,57,0.00,CLR,,0.00,WeatherDisplay:10.37,2013-07-16 01:18:00,
2013-07-15 20:23:00,86.9,70.3,29.22,South,180,3.5,3.5,58,0.00,CLR,,0.00,WeatherDisplay:10.37,2013-07-16 01:23:00,
2013-07-15 20:29:00,86.7,70.2,29.22,SW,225,5.8,5.8,58,0.00,CLR,,0.00,WeatherDisplay:10.37,2013-07-16 01:29:00,
2013-07-15 20:34:00,86.5,70.0,29.22,SW,225,5.8,5.8,58,0.00,CLR,,0.00,WeatherDisplay:10.37,2013-07-16 01:34:00,
2013-07-15 20:39:00,86.4,71.3,29.22,SW,225,4.6,4.6,61,0.00,CLR,,0.00,WeatherDisplay:10.37,2013-07-16 01:39:00,
2013-07-15 20:44:00,86.5,71.0,29.22,SSE,158,3.5,3.5,60,0.00,CLR,,0.00,WeatherDisplay:10.37,2013-07-16 01:44:00,
2013-07-15 20:50:00,86.4,70.8,29.21,South,180,3.5,3.5,60,0.00,CLR,,0.00,WeatherDisplay:10.37,2013-07-16 01:50:00,
2013-07-15 20:55:00,85.8,73.1,29.22,SE,135,3.5,3.5,66,0.00,CLR,,0.00,WeatherDisplay:10.37,2013-07-16 01:55:00,
2013-07-15 21:00:00,85.8,73.1,29.22,South,180,3.5,3.5,66,0.00,CLR,,0.00,WeatherDisplay:10.37,2013-07-16 02:00:00,
2013-07-15 21:05:00,85.6,72.5,29.22,South,180,3.5,3.5,65,0.00,CLR,,0.00,WeatherDisplay:10.37,2013-07-16 02:05:00,
2013-07-15 21:10:00,86.4,72.3,29.22,South,180,3.5,3.5,63,0.00,CLR,,0.00,WeatherDisplay:10.37,2013-07-16 02:10:00,
2013-07-15 21:15:00,86.4,72.7,29.22,South,180,1.0,3.0,64,0.00,CLR,,0.00,WeatherDisplay:10.37,2013-07-16 02:15:00,
2013-07-15 21:20:00,85.6,74.3,29.23,South,180,3.5,3.5,69,0.00,CLR,,0.00,WeatherDisplay:10.37,2013-07-16 02:20:00,
2013-07-15 21:25:00,85.1,73.8,29.23,South,170,3.0,4.0,69,0.00,CLR,,0.00,WeatherDisplay:10.37,2013-07-16 02:25:00,
2013-07-15 21:31:00,84.9,74.5,29.23,South,180,3.5,3.5,71,0.00,CLR,,0.00,WeatherDisplay:10.37,2013-07-16 02:31:00,
2013-07-15 21:36:00,85.1,74.2,29.24,South,180,2.3,0.0,70,0.00,CLR,,0.00,WeatherDisplay:10.37,2013-07-16 02:36:00,
2013-07-15 21:41:00,84.7,73.9,29.23,SW,225,1.1,0.0,70,0.00,CLR,,0.00,WeatherDisplay:10.37,2013-07-16 02:41:00,
2013-07-15 21:46:00,84.9,74.9,29.24,South,180,3.5,3.5,72,0.00,CLR,,0.00,WeatherDisplay:10.37,2013-07-16 02:46:00,
2013-07-15 21:51:00,85.3,74.0,29.23,South,180,3.5,3.5,69,0.00,CLR,,0.00,WeatherDisplay:10.37,2013-07-16 02:51:00,
2013-07-15 21:56:00,85.8,73.1,29.24,South,180,3.5,3.5,66,0.00,CLR,,0.00,WeatherDisplay:10.37,2013-07-16 02:56:00,
2013-07-15 22:01:00,85.1,73.3,29.24,South,180,3.8,3.8,68,0.00,CLR,,0.00,WeatherDisplay:10.37,2013-07-16 03:01:00,
2013-07-15 22:06:00,84.4,73.1,29.24,NW,315,4.6,4.6,69,0.00,CLR,,0.00,WeatherDisplay:10.37,2013-07-16 03:06:00,
2013-07-15 22:11:00,84.9,73.6,29.24,East,90,2.3,0.0,69,0.00,CLR,,0.00,WeatherDisplay:10.37,2013-07-16 03:11:00,
2013-07-15 22:17:00,83.5,72.7,29.24,NE,45,1.1,1.1,70,0.00,CLR,,0.00,WeatherDisplay:10.37,2013-07-16 03:17:00,
2013-07-15 22:22:00,81.9,72.8,29.24,NE,45,1.1,1.1,74,0.00,CLR,,0.00,WeatherDisplay:10.37,2013-07-16 03:22:00,
2013-07-15 22:28:00,80.8,72.9,29.23,ENE,68,1.1,0.0,77,0.00,CLR,,0.00,WeatherDisplay:10.37,2013-07-16 03:28:00,
2013-07-15 22:33:00,80.6,73.5,29.24,NE,45,1.1,0.0,79,0.00,CLR,,0.00,WeatherDisplay:10.37,2013-07-16 03:33:00,
2013-07-15 22:38:00,80.4,73.3,29.24,South,180,1.1,1.1,79,0.00,CLR,,0.00,WeatherDisplay:10.37,2013-07-16 03:38:00,
2013-07-15 22:44:00,79.9,72.8,29.24,NE,45,1.1,1.1,79,0.00,CLR,,0.00,WeatherDisplay:10.37,2013-07-16 03:44:00,
2013-07-15 22:49:00,80.1,72.6,29.23,East,90,3.5,0.0,78,0.00,CLR,,0.00,WeatherDisplay:10.37,2013-07-16 03:49:00,
2013-07-15 22:54:00,80.2,72.0,29.23,NE,45,1.1,0.0,76,0.00,CLR,,0.00,WeatherDisplay:10.37,2013-07-16 03:54:00,
2013-07-15 22:59:00,79.9,71.6,29.23,South,180,3.5,3.5,76,0.00,CLR,,0.00,WeatherDisplay:10.37,2013-07-16 03:59:00,
2013-07-15 23:01:00,79.9,71.6,29.24,NW,315,2.3,2.3,76,0.00,CLR,,0.00,WeatherDisplay:10.37,2013-07-16 04:01:00,
2013-07-15 23:06:00,79.9,71.6,29.23,NW,315,1.1,1.1,76,0.00,CLR,,0.00,WeatherDisplay:10.37,2013-07-16 04:06:00,
2013-07-15 23:11:00,80.8,71.7,29.23,East,90,2.3,2.3,74,0.00,CLR,,0.00,WeatherDisplay:10.37,2013-07-16 04:11:00,
2013-07-15 23:16:00,81.0,71.9,29.23,SW,225,2.3,2.3,74,0.00,CLR,,0.00,WeatherDisplay:10.37,2013-07-16 04:16:00,
2013-07-15 23:21:00,81.5,72.0,29.24,South,180,3.5,3.5,73,0.00,CLR,,0.00,WeatherDisplay:10.37,2013-07-16 04:21:00,
2013-07-15 23:26:00,82.0,72.5,29.23,SE,135,3.5,3.5,73,0.00,CLR,,0.00,WeatherDisplay:10.37,2013-07-16 04:26:00,
2013-07-15 23:31:00,81.3,71.8,29.23,SE,135,3.5,0.0,73,0.00,CLR,,0.00,WeatherDisplay:10.37,2013-07-16 04:31:00,
2013-07-15 23:36:00,80.1,73.0,29.23,SE,135,4.6,4.6,79,0.00,CLR,,0.00,WeatherDisplay:10.37,2013-07-16 04:36:00,
2013-07-15 23:41:00,79.5,72.4,29.23,East,90,3.5,3.5,79,0.00,CLR,,0.00,WeatherDisplay:10.37,2013-07-16 04:41:00,
2013-07-15 23:46:00,79.2,72.1,29.23,NE,45,2.3,2.3,79,0.00,CLR,,0.00,WeatherDisplay:10.37,2013-07-16 04:46:00,
2013-07-15 23:51:00,78.8,72.1,29.23,SE,135,2.3,2.3,80,0.00,CLR,,0.00,WeatherDisplay:10.37,2013-07-16 04:51:00,
2013-07-15 23:56:00,78.8,72.5,29.23,SE,135,3.5,3.5,81,0.00,CLR,,0.00,WeatherDisplay:10.37,2013-07-16 04:56:00,